Location: Chandrammap?lem
(16.9200°N, 81.0051°E)
Time: 04:12:09
(UTC+00:00)

NOSS 3-3 (C) - Pass Details

Date: 29 May 2024
Orbit: 736 x 1479 km, 63.4° (Epoch: 19 June)

Event Time Altitude Azimuth Distance (km) Brightness Sun altitude
Rises 14:08:35 0° 179° (S) 3,165 6.4 -14.5°
Enters shadow 14:09:58 - 174° (S) 2,665 6.0 -14.8°
Exits shadow 14:15:02 26° 117° (ESE) 1,444 4.3 -15.8°
Maximum altitude 14:15:23 26° 110° (ESE) 1,439 4.3 -15.9°
Drops below altitude 10° 14:19:40 10° 55° (NE) 2,323 5.7 -16.8°
Sets 14:22:31 0° 43° (NE) 3,327 6.7 -17.4°
